| time (UTC) | temp F | wind direction | speed MPH | gust MPH | rain 1hr in | rain 24hr in | rain mn in | humidity % | barometer mb |
| 20260503001604 | 65 | 277 | 1.0 | 4.0 | 0.00 | 0.00 | 0.00 | 43 | 1020.4 |
| 20260503000108 | 66 | 197 | 1.0 | 4.0 | 0.00 | 0.00 | 0.00 | 42 | 1020.5 |
| 20260502234615 | 65 | 11 | 1.0 | 7.0 | 0.00 | 0.00 | 0.00 | 42 | 1020.5 |
| 20260502233109 | 66 | 218 | 3.0 | 8.0 | 0.00 | 0.00 | 0.00 | 42 | 1020.4 |
| 20260502231611 | 66 | 322 | 2.0 | 6.0 | 0.00 | 0.00 | 0.00 | 42 | 1020.5 |
| 20260502230057 | 66 | 294 | 3.0 | 7.0 | 0.00 | 0.00 | 0.00 | 42 | 1020.7 |
| 20260502224555 | 66 | 280 | 1.0 | 6.0 | 0.00 | 0.00 | 0.00 | 42 | 1020.6 |
| 20260502223055 | 66 | 220 | 2.0 | 8.0 | 0.00 | 0.00 | 0.00 | 43 | 1020.7 |
| 20260502221602 | 66 | 304 | 4.0 | 9.0 | 0.00 | 0.00 | 0.00 | 43 | 1020.6 |
| 20260502220051 | 65 | 15 | 3.0 | 8.0 | 0.00 | 0.00 | 0.00 | 43 | 1020.8 |
| 20260502214554 | 65 | 18 | 1.0 | 7.0 | 0.00 | 0.00 | 0.00 | 44 | 1020.9 |
| 20260502213053 | 65 | 298 | 3.0 | 10.0 | 0.00 | 0.00 | 0.00 | 43 | 1021.0 |
| 20260502211549 | 65 | 284 | 6.0 | 11.0 | 0.00 | 0.00 | 0.00 | 42 | 1021.1 |
| 20260502210048 | 65 | 38 | 2.0 | 11.0 | 0.00 | 0.00 | 0.00 | 44 | 1021.2 |
| 20260502204551 | 64 | 300 | 6.0 | 11.0 | 0.00 | 0.00 | 0.00 | 44 | 1021.4 |
| 20260502203148 | 64 | 38 | 3.0 | 15.0 | 0.00 | 0.00 | 0.00 | 45 | 1021.6 |
| 20260502201549 | 65 | 345 | 4.0 | 9.0 | 0.00 | 0.00 | 0.00 | 43 | 1021.7 |
| 20260502200045 | 64 | 351 | 5.0 | 13.0 | 0.00 | 0.00 | 0.00 | 44 | 1021.9 |
| 20260502194541 | 63 | 97 | 4.0 | 10.0 | 0.00 | 0.00 | 0.00 | 46 | 1021.8 |
| 20260502193041 | 63 | 342 | 8.0 | 18.0 | 0.00 | 0.00 | 0.00 | 44 | 1022.0 |
| 20260502191541 | 63 | 10 | 4.0 | 12.0 | 0.00 | 0.00 | 0.00 | 45 | 1022.1 |
| 20260502190039 | 62 | 26 | 4.0 | 14.0 | 0.00 | 0.00 | 0.00 | 44 | 1022.2 |
| 20260502184538 | 62 | 344 | 5.0 | 13.0 | 0.00 | 0.00 | 0.00 | 44 | 1022.4 |
| 20260502183040 | 63 | 11 | 8.0 | 14.0 | 0.00 | 0.00 | 0.00 | 43 | 1022.5 |
| 20260502181535 | 62 | 253 | 3.0 | 14.0 | 0.00 | 0.00 | 0.00 | 46 | 1022.5 |
| 20260502163033 | 59 | 11 | 9.0 | 14.0 | 0.00 | 0.00 | 0.00 | 48 | 1023.2 |
| 20260502161522 | 59 | 11 | 7.0 | 11.0 | 0.00 | 0.00 | 0.00 | 47 | 1023.3 |
| 20260502151514 | 57 | 21 | 7.0 | 15.0 | 0.00 | 0.00 | 0.00 | 52 | 1023.2 |
| 20260502123048 | 46 | 319 | 0.0 | 1.0 | 0.00 | 0.00 | 0.00 | 82 | 1022.3 |
| 20260502121550 | 0 | 0.0 | 0.0 | 0.00 | 0.00 | 0.00 | 1022.1 | ||
| 20260502114536 | 0 | 0.0 | 0.0 | 0.00 | 0.00 | 0.00 | 1021.6 | ||
| 20260502113030 | 44 | 298 | 0.0 | 1.0 | 0.00 | 0.00 | 0.00 | 86 | 1021.4 |
| 20260502111527 | 45 | 281 | 0.0 | 1.0 | 0.00 | 0.00 | 0.00 | 84 | 1021.3 |
| 20260502110026 | 45 | 296 | 0.0 | 1.0 | 0.00 | 0.00 | 0.00 | 84 | 1021.1 |
| 20260502104539 | 45 | 305 | 0.0 | 2.0 | 0.00 | 0.00 | 0.00 | 83 | 1020.9 |
| 20260502103028 | 45 | 313 | 1.0 | 2.0 | 0.00 | 0.00 | 0.00 | 84 | 1020.9 |
| 20260502101521 | 45 | 306 | 0.0 | 1.0 | 0.00 | 0.00 | 0.00 | 85 | 1020.7 |
| 20260502091521 | 47 | 310 | 0.0 | 1.0 | 0.00 | 0.00 | 0.00 | 82 | 1020.7 |
| 20260502070058 | 50 | 313 | 0.0 | 1.0 | 0.00 | 0.00 | 0.00 | 84 | 1019.9 |
| 20260502064606 | 50 | 306 | 0.0 | 2.0 | 0.00 | 0.00 | 0.00 | 84 | 1020.0 |
| 20260502063053 | 50 | 336 | 1.0 | 2.0 | 0.00 | 0.00 | 0.00 | 86 | 1020.0 |
| 20260502061550 | 50 | 277 | 0.0 | 1.0 | 0.00 | 0.00 | 0.00 | 88 | 1019.9 |
| 20260502060047 | 51 | 348 | 0.0 | 0.0 | 0.00 | 0.00 | 0.00 | 87 | 1019.9 |
| 20260502054546 | 51 | 348 | 0.0 | 1.0 | 0.00 | 0.00 | 0.00 | 88 | 1020.0 |
| 20260502053044 | 51 | 236 | 0.0 | 0.0 | 0.00 | 0.00 | 0.00 | 86 | 1019.9 |
| 20260502051602 | 51 | 237 | 0.0 | 0.0 | 0.00 | 0.00 | 0.00 | 85 | 1019.8 |
| 20260502050040 | 51 | 237 | 0.0 | 0.0 | 0.00 | 0.00 | 0.00 | 84 | 1019.9 |
| 20260502044539 | 51 | 236 | 0.0 | 0.0 | 0.00 | 0.00 | 0.00 | 85 | 1019.9 |
| 20260502043043 | 52 | 237 | 0.0 | 0.0 | 0.00 | 0.00 | 0.00 | 83 | 1019.8 |
| 20260502041539 | 53 | 236 | 0.0 | 0.0 | 0.00 | 0.00 | 0.00 | 81 | 1019.7 |
| 20260502040039 | 54 | 236 | 0.0 | 0.0 | 0.00 | 0.00 | 0.00 | 76 | 1019.7 |
| 20260502034544 | 54 | 236 | 0.0 | 0.0 | 0.00 | 0.00 | 0.00 | 78 | 1019.9 |
| 20260502033048 | 54 | 236 | 0.0 | 0.0 | 0.00 | 0.00 | 0.00 | 78 | 1019.9 |
| 20260502031547 | 54 | 236 | 0.0 | 0.0 | 0.00 | 0.00 | 0.00 | 77 | 1019.9 |
| 20260502030036 | 55 | 329 | 0.0 | 0.0 | 0.00 | 0.00 | 0.00 | 77 | 1019.7 |
| 20260502024534 | 55 | 336 | 0.0 | 0.0 | 0.00 | 0.00 | 0.00 | 76 | 1019.7 |
| 20260502023034 | 55 | 48 | 0.0 | 0.0 | 0.00 | 0.00 | 0.00 | 76 | 1019.5 |
| 20260502021534 | 55 | 277 | 0.0 | 0.0 | 0.00 | 0.00 | 0.00 | 73 | 1019.3 |
| 20260502020033 | 55 | 277 | 0.0 | 0.0 | 0.00 | 0.00 | 0.00 | 67 | 1019.0 |
| 20260502014533 | 56 | 277 | 0.0 | 0.0 | 0.00 | 0.00 | 0.00 | 65 | 1018.9 |
| 20260502013032 | 58 | 277 | 0.0 | 0.0 | 0.00 | 0.00 | 0.00 | 65 | 1018.7 |
| 20260502011534 | 60 | 277 | 0.0 | 0.0 | 0.00 | 0.00 | 0.00 | 60 | 1018.5 |
| 20260502010031 | 62 | 277 | 0.0 | 1.0 | 0.00 | 0.00 | 0.00 | 53 | 1018.3 |
| 20260502004530 | 64 | 309 | 1.0 | 3.0 | 0.00 | 0.00 | 0.00 | 48 | 1018.2 |
| 20260502003033 | 65 | 321 | 2.0 | 5.0 | 0.00 | 0.00 | 0.00 | 46 | 1017.9 |